Iridium Next SV163

operational
NORAD ID: 43575 Int'l Des: 2018-061 Owner: IRIDS Country: US Constellation: Iridium NEXT
LEOCIRCULARPOLAR

About Iridium Next SV163

Description loading...

Live Position

Loading 3D Globe...

Upcoming Passes

Altitude History

Altitude vs Time

uPlot chart will show altitude changes over time

Two-Line Element Set

1 43575U 18061G 25348.88414704 .00000327 00000-0 10960-3 0 9999
2 43575 86.3973 133.7856 0001828 93.7164 266.4241 14.34215996386965
Epoch: Dec 14, 2025 • Age: 14 hours

Current Status

Altitude 788.9 km
Velocity 7.47 km/s
Sub-Earth Point 72.13°N, 51.26°E
Launch Date Jul 25, 2018
Age 7.3 years
Type communications

Technical Details

Classification Payload
Mass 860.00 kg
Dry Mass 700.00 kg
Total Mass 860.00 kg
Length 3.10 m
Diameter 1.50 m
Span 9.40 m
Shape Half Hex Prism+2 pan
Manufacturer NGISGA
Bus Type EliteBus
Phase Status In Orbit
Owner/State IRIDS/US

Large Constellations

Loading constellations...